Flag for Canada Weather past 2 weeks in Resolute Bay, Nunavut Territory, Canada

Now
36 °F

Drizzle. Fog.


Feels Like: 36 °F
Forecast: 29 / 39 °F
Wind: 1 mph from Southwest

Location: Resolute

Current Time: Aug 27, 2014 at 10:36:00 AM

Latest Report: Aug 27, 2014 at 10:00 AM


Visibility: 1 mi

Pressure: 29.81 "Hg

Humidity: 100%

Dew point: 36 °F

Location of Resolute BayLocation

Historic Weather in Resolute Bay — Graph

°F

Resolute Bay temperature yesterday

Maximum temperature yesterday: 36 °F (at 5:00 PM)
Minimum temperature yesterday: 32 °F (at 2:00 AM)
Average temperature yesterday: 33 °F

Past Weeks' High & Low Weather Summary

 TemperatureHumidityPressure
High45 °F (Aug 16, 6:00 PM)100% (Aug 13, 8:00 AM)30.25 "Hg (Aug 13, 8:00 AM)
Low28 °F (Aug 18, 4:00 AM)70% (Aug 18, 7:00 PM)29.54 "Hg (Aug 19, 11:00 PM)
Average34 °F93%29.90 "Hg
* Reported Aug 12 9:00 AM — Aug 27 9:00 AM, Resolute Bay, Weather by CustomWeather, © 2014

Note: Actual official high and low records may vary slightly from our data, if they occured in-between our weather recording intervals... More about our weather records

Advertising

Resolute Bay weather history for previous 24 hours

 ConditionsComfort  
Time TempWeatherWind HumidityBarometerVisibility
9:00 AM
Aug 27
36 °FFog.2 mph93%29.81 "Hg6 mi
8:00 AM34 °FFog.No wind100%29.81 "Hg2 mi
7:00 AM32 °FFog.No wind100%29.81 "Hg0 mi
6:47 AMN/AFog.2 mphN/AN/A0 mi
6:00 AM34 °FFog.2 mph93%29.80 "Hg6 mi
5:52 AMN/AFog.No windN/AN/A4 mi
5:00 AM34 °FFog.2 mph100%29.79 "Hg6 mi
4:00 AM34 °FOvercast.No wind100%29.79 "Hg8 mi
3:00 AM34 °FFog.No wind100%29.79 "Hg8 mi
2:00 AM34 °FFog.No wind100%29.79 "Hg4 mi
1:53 AMN/AFog.No windN/AN/A4 mi
1:00 AM34 °FPassing clouds.3 mph100%29.79 "Hg12 mi
12:00 AM34 °FLow clouds.3 mph100%29.79 "Hg12 mi
11:00 PM
Aug 26
34 °FLow clouds.2 mph100%29.79 "Hg15 mi
10:00 PM34 °FFog.5 mph100%29.79 "Hg15 mi
9:00 PM34 °FFog.6 mph100%29.79 "Hg1 mi
8:00 PM34 °FFog.6 mph100%29.79 "Hg15 mi
7:00 PM36 °FMore clouds than sun.2 mph93%29.79 "Hg15 mi
6:00 PM36 °FFog.2 mph100%29.79 "Hg1 mi
5:00 PM36 °FFog.2 mph93%29.79 "Hg15 mi
4:00 PM34 °FMostly cloudy.3 mph100%29.80 "Hg15 mi
3:00 PM34 °FFog.3 mph100%29.79 "Hg6 mi
2:00 PM34 °FFog.5 mph93%29.79 "Hg6 mi
1:00 PM34 °FLow clouds.6 mph93%29.79 "Hg10 mi
12:00 PM34 °FLow clouds.3 mph93%29.79 "Hg15 mi
11:00 AM32 °FMore clouds than sun.5 mph100%29.80 "Hg15 mi
10:00 AM32 °FMore clouds than sun.3 mph100%29.81 "Hg15 mi
Weather by CustomWeather, © 2014

See weather overviewHow to use our weather pages